Weather History for KALB - October, 2011

Change the Weather History Date:

Saturday, October 15, 2011

  Actual Average Record
Temperature  
Mean Temperature 57 °F 50 °F  
Max Temperature 63 °F 60 °F 86 °F (1897)
Min Temperature 51 °F 40 °F 27 °F (1978)
Degree Days  
Heating Degree Days 8 15  
Month to date heating degree days 97 190  
Since 1 July heating degree days 171 357  
Cooling Degree Days 0 0  
Month to date cooling degree days 2 0  
Year to date cooling degree days 794 594  
Growing Degree Days 7 (Base 50)    
Moisture  
Dew Point 44 °F    
Average Humidity 57    
Maximum Humidity 71    
Minimum Humidity 43    
Precipitation  
Precipitation 0.10 in 0.13 in 1.49 in (1955)
Month to date precipitation 2.00 1.83  
Year to date precipitation 46.52 31.28  
Snow  
Snow 0.00 in 0.00 in T in (1939)
Month to date snowfall 0.0 0.0  
Since 1 July snowfall 0.0 0.0  
Since 1 September snowfall 0.0 0.0  
Snow Depth 0.00 in    
Sea Level Pressure  
Sea Level Pressure 29.52 in    
Wind  
Wind Speed 12 mph (SSW)    
Max Wind Speed 29 mph    
Max Gust Speed 38 mph    
Visibility 10 miles    
Events Rain    
T = Trace of Precipitation, MM = Missing Value Source: NWS Daily Summary

Daily Weather History Graph

Daily Weather History Graph

Search for Another Location

Airport or City:

Trip Planner

Search our weather history database for the weather conditions in past years. The results will help you decide how hot, cold, wet, or windy it might be!

Date:

Astronomy

Oct. 15, 2011 Rise Set
Actual Time 7:08 AM EDT 6:13 PM EDT
Civil Twilight 6:39 AM EDT 6:41 PM EDT
Nautical Twilight 6:06 AM EDT 7:14 PM EDT
Astronomical Twilight 5:34 AM EDT 7:47 PM EDT
Moon 8:02 PM EDT (10/15) 10:35 AM EDT (10/15)
Length of Visible Light 12h 02m
Length of Day
11h 05m
Waning Gibbous, 89% of the Moon is Illuminated
Oct 15
Waning Gibbous
Oct 19
Last Quarter
Oct 26
New
Nov 2
First Quarter
Nov 10
Full

Hourly Weather History & Observations

Time (EDT) Temp. Dew Point Humidity Pressure Visibility Wind Dir Wind Speed Gust Speed Precip Events Conditions
12:51 AM 57.9 °F 50.0 °F 75% 29.39 in 10.0 mi SSW 4.6 mph - 0.00 in   Overcast
1:51 AM 59.0 °F 48.0 °F 67% 29.41 in 10.0 mi SW 11.5 mph - N/A   Overcast
2:51 AM 57.9 °F 46.9 °F 67% 29.44 in 10.0 mi SW 20.7 mph 27.6 mph 0.00 in Rain Light Rain
3:51 AM 57.9 °F 45.0 °F 62% 29.45 in 10.0 mi SW 15.0 mph 23.0 mph 0.00 in   Mostly Cloudy
4:51 AM 57.0 °F 44.1 °F 62% 29.47 in 10.0 mi SW 11.5 mph - N/A   Mostly Cloudy
5:51 AM 55.0 °F 43.0 °F 64% 29.48 in 10.0 mi SSW 9.2 mph 17.3 mph N/A   Partly Cloudy
6:51 AM 55.0 °F 43.0 °F 64% 29.50 in 10.0 mi South 10.4 mph - N/A   Scattered Clouds
7:51 AM 54.0 °F 45.0 °F 72% 29.51 in 10.0 mi SE 3.5 mph - N/A   Mostly Cloudy
8:51 AM 55.4 °F 44.6 °F 67% 29.51 in 10.0 mi South 10.4 mph - N/A   Mostly Cloudy
9:51 AM 59.0 °F 46.0 °F 62% 29.52 in 10.0 mi South 16.1 mph 23.0 mph N/A   Mostly Cloudy
10:51 AM 57.9 °F 46.0 °F 65% 29.52 in 10.0 mi South 10.4 mph - N/A   Mostly Cloudy
11:51 AM 60.1 °F 45.0 °F 57% 29.51 in 10.0 mi SSW 5.8 mph - N/A   Mostly Cloudy
12:51 PM 60.1 °F 45.0 °F 57% 29.50 in 10.0 mi SSW 5.8 mph - N/A   Mostly Cloudy
1:51 PM 62.1 °F 39.9 °F 44% 29.49 in 10.0 mi SSW 18.4 mph 24.2 mph N/A   Mostly Cloudy
2:51 PM 62.1 °F 39.9 °F 44% 29.49 in 10.0 mi SW 20.7 mph 33.4 mph N/A   Mostly Cloudy
3:51 PM 62.6 °F 42.8 °F 48% 29.49 in 10.0 mi SSW 17.3 mph 25.3 mph N/A   Mostly Cloudy
4:38 PM 53.6 °F 44.6 °F 72% 29.54 in 2.0 mi West 27.6 mph 38.0 mph 0.00 in Rain Heavy Rain
4:51 PM 52.0 °F 45.0 °F 77% 29.54 in 7.0 mi WSW 16.1 mph 24.2 mph 0.08 in Rain Light Rain
5:51 PM 54.0 °F 45.0 °F 72% 29.55 in 10.0 mi SSW 9.2 mph - 0.00 in   Mostly Cloudy
6:51 PM 55.0 °F 43.0 °F 64% 29.58 in 10.0 mi SW 10.4 mph - N/A   Mostly Cloudy
7:51 PM 55.9 °F 41.0 °F 57% 29.60 in 10.0 mi SSW 13.8 mph - N/A   Overcast
8:51 PM 57.0 °F 39.9 °F 53% 29.62 in 10.0 mi SSW 10.4 mph 21.9 mph N/A   Overcast
9:51 PM 57.0 °F 39.9 °F 53% 29.65 in 10.0 mi SW 10.4 mph 20.7 mph N/A   Overcast
10:51 PM 57.9 °F 39.0 °F 49% 29.65 in 10.0 mi WSW 15.0 mph 21.9 mph N/A   Overcast
11:51 PM 52.0 °F 44.1 °F 74% 29.70 in 10.0 mi WNW 11.5 mph 20.7 mph 0.01 in Rain Light Rain